GW5839 Weather Reports


time (UTC)temp
C
wind
direction
speed
KPH
gust
KPH
rain 1hr
cm
rain 24hr
cm
rain mn
cm
humidity
%
barometer
mb
20260504002515 24 0.0 0.0 0.00 0.00 0.00 44 1011.7
20260504002008 24 0.0 0.0 0.00 0.00 0.00 44 1011.7
20260504001517 25 0.0 0.0 0.00 0.00 0.00 43 1012.0
20260504001016 25 0.0 0.0 0.00 0.00 0.00 44 1012.0
20260504000013 25 0.0 0.0 0.00 0.00 0.00 45 1012.0
20260503235508 25 0.0 0.0 0.00 0.00 0.00 45 1012.0
20260503235009 25 0.0 0.0 0.00 0.00 0.00 46 1012.4
20260503234535 25 0.0 0.0 0.00 0.00 0.00 45 1012.4
20260503234017 26 0.0 0.0 0.00 0.00 0.00 46 1011.3
20260503233510 25 0.0 0.0 0.00 0.00 0.00 47 1011.7
20260503233016 25 0.0 0.0 0.00 0.00 0.00 46 1011.7
20260503232507 25 0.0 0.0 0.00 0.00 0.00 46 1011.7
20260503232030 25 0.0 0.0 0.00 0.00 0.00 46 1012.0
20260503231513 25 0.0 0.0 0.00 0.00 0.00 46 1012.0
20260503231011 25 0.0 0.0 0.00 0.00 0.00 45 1012.4
20260503230545 25 0.0 0.0 0.00 0.00 0.00 47 1012.4
20260503225511 25 0.0 0.0 0.00 0.00 0.00 47 1013.4
20260503225011 25 0.0 0.0 0.00 0.00 0.00 47 1013.8
20260503224515 24 0.0 0.0 0.00 0.00 0.00 47 1013.8
20260503224023 24 0.0 0.0 0.00 0.00 0.00 47 1013.4
20260503223514 24 0.0 0.0 0.00 0.00 0.00 47 1014.1
20260503223022 24 0.0 0.0 0.00 0.00 0.00 47 1015.1
20260503222510 25 0.0 0.0 0.00 0.00 0.00 47 1013.8
20260503222011 25 0.0 0.0 0.00 0.00 0.00 47 1014.1
20260503221524 25 0.0 0.0 0.00 0.00 0.00 48 1014.4
20260503221010 24 0.0 0.0 0.00 0.00 0.00 48 1015.5
20260503220511 24 0.0 0.0 0.00 0.00 0.00 49 1014.4
20260503220014 25 0.0 0.0 0.00 0.00 0.00 47 1015.1
20260503215534 25 0.0 0.0 0.00 0.00 0.00 48 1013.8
20260503215025 24 0.0 0.0 0.00 0.00 0.00 49 1013.1
20260503214508 24 0.0 0.0 0.00 0.00 0.00 49 1013.1
20260503214009 25 0.0 0.0 0.00 0.00 0.00 48 1013.1
20260503213512 25 0.0 0.0 0.00 0.00 0.00 47 1013.1
20260503213021 26 0.0 0.0 0.00 0.00 0.00 48 1013.1
20260503212517 25 0.0 0.0 0.00 0.00 0.00 47 1013.1
20260503212031 25 0.0 0.0 0.00 0.00 0.00 47 1013.1
20260503211507 25 0.0 0.0 0.00 0.00 0.00 46 1013.1
20260503211009 25 0.0 0.0 0.00 0.00 0.00 45 1013.1
20260503210512 25 0.0 0.0 0.00 0.00 0.00 45 1013.1
20260503210015 25 0.0 0.0 0.00 0.00 0.00 45 1013.4
20260503205526 25 0.0 0.0 0.00 0.00 0.00 44 1013.4
20260503205018 25 0.0 0.0 0.00 0.00 0.00 46 1013.4
20260503204506 25 0.0 0.0 0.00 0.00 0.00 45 1013.4
20260503204021 25 0.0 0.0 0.00 0.00 0.00 45 1013.4
20260503203526 25 0.0 0.0 0.00 0.00 0.00 46 1013.4
20260503203007 25 0.0 0.0 0.00 0.00 0.00 45 1013.4
20260503202516 25 0.0 0.0 0.00 0.00 0.00 46 1013.4
20260503202014 24 0.0 0.0 0.00 0.00 0.00 46 1013.4
20260503201558 24 0.0 0.0 0.00 0.00 0.00 46 1013.4
20260503201014 24 0.0 0.0 0.00 0.00 0.00 45 1013.8
20260503200514 24 0.0 0.0 0.00 0.00 0.00 45 1013.8
20260503200018 23 0.0 0.0 0.00 0.00 0.00 45 1013.8
20260503195510 24 0.0 0.0 0.00 0.00 0.00 45 1014.1
20260503195015 24 0.0 0.0 0.00 0.00 0.00 46 1014.1
20260503194507 23 0.0 0.0 0.00 0.00 0.00 49 1014.1
20260503194022 23 0.0 0.0 0.00 0.00 0.00 51 1014.4
20260503193533 23 0.0 0.0 0.00 0.00 0.00 50 1014.1
20260503193026 23 0.0 0.0 0.00 0.00 0.00 50 1014.4
20260503192511 23 0.0 0.0 0.00 0.00 0.00 51 1014.4
20260503192016 23 0.0 0.0 0.00 0.00 0.00 50 1014.4
20260503191512 23 0.0 0.0 0.00 0.00 0.00 50 1014.4
20260503191011 22 0.0 0.0 0.00 0.00 0.00 52 1014.8
20260503190520 22 0.0 0.0 0.00 0.00 0.00 52 1014.8
20260503190008 22 0.0 0.0 0.00 0.00 0.00 52 1014.8
20260503185546 22 0.0 0.0 0.00 0.00 0.00 54 1014.8
20260503185015 22 0.0 0.0 0.00 0.00 0.00 54 1015.1
20260503184508 22 0.0 0.0 0.00 0.00 0.00 54 1015.1
20260503184013 22 0.0 0.0 0.00 0.00 0.00 55 1015.1
20260503183520 21 0.0 0.0 0.00 0.00 0.00 54 1015.5
20260503183008 21 0.0 0.0 0.00 0.00 0.00 55 1015.1
20260503182512 21 0.0 0.0 0.00 0.00 0.00 56 1015.5
20260503182016 21 0.0 0.0 0.00 0.00 0.00 56 1015.1
20260503181554 21 0.0 0.0 0.00 0.00 0.00 56 1015.1
20260503181012 21 0.0 0.0 0.00 0.00 0.00 56 1015.1
20260503180532 21 0.0 0.0 0.00 0.00 0.00 57 1015.1
20260503180011 21 0.0 0.0 0.00 0.00 0.00 56 1014.8
20260503175533 21 0.0 0.0 0.00 0.00 0.00 55 1015.1
20260503175018 21 0.0 0.0 0.00 0.00 0.00 56 1015.5
20260503174510 21 0.0 0.0 0.00 0.00 0.00 56 1015.5
20260503174016 20 0.0 0.0 0.00 0.00 0.00 57 1015.5
20260503173515 20 0.0 0.0 0.00 0.00 0.00 57 1015.8
20260503173008 20 0.0 0.0 0.00 0.00 0.00 60 1015.8
20260503172511 20 0.0 0.0 0.00 0.00 0.00 60 1015.5
20260503172015 19 0.0 0.0 0.00 0.00 0.00 61 1015.8
20260503171507 19 0.0 0.0 0.00 0.00 0.00 60 1015.8
20260503171010 19 0.0 0.0 0.00 0.00 0.00 59 1015.8
20260503170520 19 0.0 0.0 0.00 0.00 0.00 59 1015.8
20260503151010 16 0.0 0.0 0.00 0.00 0.00 72 1016.2
20260503150532 15 0.0 0.0 0.00 0.00 0.00 72 1016.2
20260503131017 13 0.0 0.0 0.00 0.00 0.00 73 1015.8
20260503130512 13 0.0 0.0 0.00 0.00 0.00 74 1015.8
20260503081053 14 0.0 0.0 0.00 0.00 0.00 63 1016.2
20260503072556 16 0.0 0.0 0.00 0.00 0.00 56 1016.2
20260503071026 16 0.0 0.0 0.00 0.00 0.00 55 1016.2
20260503070514 16 0.0 0.0 0.00 0.00 0.00 55 1015.8
20260503055012 16 0.0 0.0 0.00 0.00 0.00 57 1015.8
20260503054526 16 0.0 0.0 0.00 0.00 0.00 56 1015.8
20260503054033 16 0.0 0.0 0.00 0.00 0.00 56 1015.8
20260503053033 16 0.0 0.0 0.00 0.00 0.00 56 1015.8
20260503052532 16 0.0 0.0 0.00 0.00 0.00 56 1016.2
20260503052031 17 0.0 0.0 0.00 0.00 0.00 56 1015.8
20260503051514 17 0.0 0.0 0.00 0.00 0.00 56 1015.8
20260503051011 16 0.0 0.0 0.00 0.00 0.00 57 1015.8
20260503045527 16 0.0 0.0 0.00 0.00 0.00 57 1015.8
20260503044031 17 0.0 0.0 0.00 0.00 0.00 54 1015.5
20260503043532 17 0.0 0.0 0.00 0.00 0.00 54 1015.5
20260503043014 17 0.0 0.0 0.00 0.00 0.00 54 1015.5
20260503042530 17 0.0 0.0 0.00 0.00 0.00 54 1015.5
20260503042056 17 0.0 0.0 0.00 0.00 0.00 54 1015.5
20260503041508 18 0.0 0.0 0.00 0.00 0.00 54 1015.5
20260503041011 18 0.0 0.0 0.00 0.00 0.00 54 1015.1
20260503040519 18 0.0 0.0 0.00 0.00 0.00 54 1015.1
20260503040010 17 0.0 0.0 0.00 0.00 0.00 54 1015.1
20260503035544 17 0.0 0.0 0.00 0.00 0.00 55 1015.1
20260503035020 17 0.0 0.0 0.00 0.00 0.00 55 1015.1
20260503034508 17 0.0 0.0 0.00 0.00 0.00 55 1015.1
20260503034013 18 0.0 0.0 0.00 0.00 0.00 55 1014.8
20260503033545 18 0.0 0.0 0.00 0.00 0.00 55 1014.8
20260503032520 18 0.0 0.0 0.00 0.00 0.00 55 1014.8
20260503032008 18 0.0 0.0 0.00 0.00 0.00 55 1014.8
20260503031511 18 0.0 0.0 0.00 0.00 0.00 55 1014.4
20260503031021 18 0.0 0.0 0.00 0.00 0.00 56 1014.8
20260503030525 18 0.0 0.0 0.00 0.00 0.00 57 1014.4
20260503030035 18 0.0 0.0 0.00 0.00 0.00 57 1014.4
20260503025518 18 0.0 0.0 0.00 0.00 0.00 57 1014.4
20260503025040 18 0.0 0.0 0.00 0.00 0.00 57 1014.4
20260503024512 18 0.0 0.0 0.00 0.00 0.00 57 1014.4
20260503024016 19 0.0 0.0 0.00 0.00 0.00 56 1014.4
20260503023529 19 0.0 0.0 0.00 0.00 0.00 56 1014.4
20260503023014 19 0.0 0.0 0.00 0.00 0.00 56 1014.4
20260503022515 19 0.0 0.0 0.00 0.00 0.00 56 1014.4
20260503022012 20 0.0 0.0 0.00 0.00 0.00 56 1014.4
20260503021511 20 0.0 0.0 0.00 0.00 0.00 56 1014.4
20260503021017 20 0.0 0.0 0.00 0.00 0.00 56 1014.4
20260503020519 20 0.0 0.0 0.00 0.00 0.00 57 1014.4
20260503020011 20 0.0 0.0 0.00 0.00 0.00 57 1014.4
20260503015515 20 0.0 0.0 0.00 0.00 0.00 57 1014.4
20260503015009 20 0.0 0.0 0.00 0.00 0.00 57 1014.4
20260503014510 20 0.0 0.0 0.00 0.00 0.00 57 1014.4
20260503014015 20 0.0 0.0 0.00 0.00 0.00 56 1014.4
20260503013507 20 0.0 0.0 0.00 0.00 0.00 56 1014.4
20260503013010 20 0.0 0.0 0.00 0.00 0.00 56 1014.4
20260503012513 20 0.0 0.0 0.00 0.00 0.00 56 1014.4
20260503012007 20 0.0 0.0 0.00 0.00 0.00 57 1014.4
20260503011510 20 0.0 0.0 0.00 0.00 0.00 56 1014.4
20260503011013 21 0.0 0.0 0.00 0.00 0.00 56 1014.4
20260503010506 21 0.0 0.0 0.00 0.00 0.00 55 1014.4
20260503010015 21 0.0 0.0 0.00 0.00 0.00 53 1014.4
20260503005512 21 0.0 0.0 0.00 0.00 0.00 53 1014.4
20260503005023 21 0.0 0.0 0.00 0.00 0.00 53 1014.4
20260503004509 21 0.0 0.0 0.00 0.00 0.00 54 1014.8
20260503004014 21 0.0 0.0 0.00 0.00 0.00 54 1014.8
20260503003517 21 0.0 0.0 0.00 0.00 0.00 54 1014.8
20260503003024 21 0.0 0.0 0.00 0.00 0.00 55 1014.8